AIQ3204 VTCT-VTBD

Flight info

Callsign AIQ3204
Flight time 0h 59m
Altitude 37000
Route DUBEN1B DUBEN Y28 BLAFF DCT NAKON NAKON3A
Aircraft A320/M-SDE3FGHIRWY/LB1

Departure

Time 2026-05-05 07:36
Airport Mae Fah Luang - Chiang Rai International Airport (VTCT)

Arrival

Time 2026-05-05 08:36
Airport Don Mueang International Airport (VTBD)
Time Latitude Longitude Altitude Speed Heading
2026-05-05 07:06 19.95367 99.87970 1286 ft 0 kts 299°
2026-05-05 07:26 19.95366 99.87972 1287 ft 3 kts 299°
2026-05-05 07:26 19.95353 99.87996 1288 ft 4 kts 301°
2026-05-05 07:27 19.95338 99.88020 1290 ft 4 kts 306°
2026-05-05 07:27 19.95321 99.88041 1287 ft 4 kts 329°
2026-05-05 07:27 19.95303 99.88046 1291 ft 1 kts 29°
2026-05-05 07:27 19.95302 99.88046 1285 ft 0 kts 29°
2026-05-05 07:31 19.95305 99.88048 1285 ft 4 kts 29°
2026-05-05 07:31 19.95332 99.88064 1288 ft 6 kts 30°
2026-05-05 07:31 19.95395 99.88113 1287 ft 11 kts 68°
2026-05-05 07:31 19.95398 99.88183 1288 ft 9 kts 51°
2026-05-05 07:32 19.95448 99.88215 1285 ft 8 kts 29°
2026-05-05 07:32 19.95491 99.88239 1287 ft 6 kts 28°
2026-05-05 07:32 19.95547 99.88272 1287 ft 15 kts 28°
2026-05-05 07:32 19.95659 99.88338 1285 ft 18 kts 28°
2026-05-05 07:33 19.95764 99.88399 1285 ft 16 kts 27°
2026-05-05 07:33 19.95858 99.88455 1286 ft 15 kts 29°
2026-05-05 07:33 19.95950 99.88509 1289 ft 20 kts 28°
2026-05-05 07:33 19.96080 99.88585 1285 ft 21 kts 30°
2026-05-05 07:34 19.96209 99.88661 1287 ft 21 kts 28°
2026-05-05 07:34 19.96334 99.88733 1288 ft 20 kts 29°
2026-05-05 07:34 19.96433 99.88791 1286 ft 12 kts 29°
2026-05-05 07:34 19.96472 99.88852 1285 ft 10 kts 95°
2026-05-05 07:35 19.96445 99.88910 1286 ft 8 kts 119°
2026-05-05 07:35 19.96413 99.88956 1287 ft 7 kts 139°
2026-05-05 07:35 19.96371 99.88963 1284 ft 6 kts 203°
2026-05-05 07:35 19.96300 99.88922 1283 ft 29 kts 209°
2026-05-05 07:36 19.95899 99.88687 1285 ft 99 kts 209°
2026-05-05 07:36 19.95127 99.88235 1284 ft 152 kts 208°
2026-05-05 07:36 19.94127 99.87654 1698 ft 165 kts 208°
2026-05-05 07:36 19.93122 99.87064 2408 ft 169 kts 208°
2026-05-05 07:37 19.92096 99.86462 3102 ft 169 kts 207°
2026-05-05 07:37 19.91014 99.85826 3468 ft 187 kts 207°
2026-05-05 07:37 19.89829 99.85131 3763 ft 204 kts 208°
2026-05-05 07:37 19.88515 99.84363 4056 ft 226 kts 208°
2026-05-05 07:38 19.87115 99.83542 4520 ft 234 kts 208°
2026-05-05 07:38 19.85657 99.82701 5085 ft 248 kts 205°
2026-05-05 07:38 19.83901 99.82383 5447 ft 271 kts 172°
2026-05-05 07:38 19.82205 99.83233 6042 ft 283 kts 137°
2026-05-05 07:39 19.81028 99.84922 6822 ft 288 kts 118°
2026-05-05 07:39 19.80117 99.86838 7635 ft 292 kts 123°
2026-05-05 07:39 19.78916 99.88581 8421 ft 295 kts 128°
2026-05-05 07:39 19.77621 99.90291 9191 ft 300 kts 130°
2026-05-05 07:40 19.76280 99.92008 9937 ft 305 kts 130°
2026-05-05 07:40 19.74894 99.93773 10403 ft 319 kts 130°
2026-05-05 07:40 19.73442 99.95631 10826 ft 334 kts 130°
2026-05-05 07:40 19.72450 99.96912 11116 ft 344 kts 130°
2026-05-05 07:41 19.70403 99.99580 11783 ft 358 kts 130°
2026-05-05 07:41 19.68827 100.01648 12438 ft 363 kts 129°
2026-05-05 07:41 19.67235 100.03742 13101 ft 367 kts 129°
2026-05-05 07:41 19.65517 100.05755 13724 ft 370 kts 141°
2026-05-05 07:42 19.63323 100.07168 14268 ft 371 kts 161°
2026-05-05 07:42 19.60827 100.07830 14819 ft 371 kts 172°
2026-05-05 07:42 19.58272 100.08305 15394 ft 374 kts 172°
2026-05-05 07:42 19.55693 100.08771 15976 ft 377 kts 173°
2026-05-05 07:43 19.53975 100.09080 16363 ft 380 kts 173°
2026-05-05 07:43 19.50505 100.09703 17104 ft 384 kts 173°
2026-05-05 07:43 19.47866 100.10180 17662 ft 387 kts 172°
2026-05-05 07:43 19.45201 100.10666 18215 ft 390 kts 172°
2026-05-05 07:44 19.42515 100.11160 18668 ft 393 kts 172°
2026-05-05 07:44 19.40722 100.11490 18972 ft 395 kts 172°
2026-05-05 07:44 19.37082 100.12158 19582 ft 399 kts 173°
2026-05-05 07:44 19.35264 100.12489 19890 ft 401 kts 173°
2026-05-05 07:45 19.31574 100.13164 20498 ft 404 kts 173°
2026-05-05 07:45 19.28792 100.13674 20932 ft 407 kts 173°
2026-05-05 07:45 19.26942 100.14012 21215 ft 409 kts 173°
2026-05-05 07:45 19.23207 100.14694 21778 ft 413 kts 173°
2026-05-05 07:46 19.20374 100.15211 22210 ft 415 kts 173°
2026-05-05 07:46 19.18484 100.15556 22491 ft 417 kts 173°
2026-05-05 07:46 19.15617 100.16082 22901 ft 420 kts 173°
2026-05-05 07:46 19.12731 100.16614 23288 ft 422 kts 173°
2026-05-05 07:47 19.09827 100.17147 23661 ft 425 kts 173°
2026-05-05 07:47 19.06907 100.17678 24000 ft 427 kts 173°
2026-05-05 07:47 19.03971 100.18209 24325 ft 429 kts 173°
2026-05-05 07:47 19.00064 100.18917 24769 ft 432 kts 173°
2026-05-05 07:48 18.98057 100.19282 24978 ft 434 kts 172°
2026-05-05 07:48 18.95115 100.19819 25269 ft 436 kts 172°
2026-05-05 07:48 18.92120 100.20368 25606 ft 438 kts 172°
2026-05-05 07:48 18.88092 100.21101 26030 ft 441 kts 172°
2026-05-05 07:49 18.86084 100.21467 26240 ft 442 kts 172°
2026-05-05 07:49 18.83050 100.22016 26550 ft 444 kts 172°
2026-05-05 07:49 18.79993 100.22536 26847 ft 445 kts 176°
2026-05-05 07:49 18.76896 100.22710 27144 ft 446 kts 180°
2026-05-05 07:50 18.73786 100.22808 27446 ft 448 kts 180°
2026-05-05 07:50 18.70662 100.22907 27748 ft 450 kts 180°
2026-05-05 07:50 18.67565 100.23007 28045 ft 452 kts 180°
2026-05-05 07:50 18.64418 100.23110 28335 ft 454 kts 180°
2026-05-05 07:51 18.61250 100.23211 28622 ft 456 kts 180°
2026-05-05 07:51 18.58067 100.23312 28914 ft 459 kts 180°
2026-05-05 07:51 18.54870 100.23415 29189 ft 461 kts 180°
2026-05-05 07:51 18.51657 100.23519 29471 ft 463 kts 180°
2026-05-05 07:52 18.48433 100.23622 29747 ft 465 kts 180°
2026-05-05 07:52 18.45194 100.23727 30009 ft 466 kts 180°
2026-05-05 07:52 18.41986 100.23833 30227 ft 468 kts 180°
2026-05-05 07:52 18.38722 100.23943 30446 ft 470 kts 180°
2026-05-05 07:53 18.35447 100.24051 30659 ft 472 kts 180°
2026-05-05 07:53 18.32160 100.24158 30884 ft 473 kts 180°
2026-05-05 07:53 18.28863 100.24264 31100 ft 475 kts 180°
2026-05-05 07:53 18.25556 100.24371 31300 ft 476 kts 180°
2026-05-05 07:54 18.22248 100.24481 31613 ft 475 kts 180°
2026-05-05 07:54 18.18947 100.24592 31927 ft 474 kts 180°
2026-05-05 07:54 18.15651 100.24699 32234 ft 474 kts 180°
2026-05-05 07:54 18.12412 100.24800 32557 ft 472 kts 180°
2026-05-05 07:55 18.09131 100.24904 32906 ft 471 kts 180°
2026-05-05 07:55 18.05856 100.25008 33234 ft 470 kts 180°
2026-05-05 07:55 18.02587 100.25112 33555 ft 470 kts 180°
2026-05-05 07:55 17.99320 100.25218 33864 ft 469 kts 180°
2026-05-05 07:56 17.96058 100.25326 34169 ft 469 kts 180°
2026-05-05 07:56 17.92801 100.25433 34445 ft 468 kts 180°
2026-05-05 07:56 17.89551 100.25539 34713 ft 467 kts 180°
2026-05-05 07:56 17.86306 100.25646 34980 ft 466 kts 180°
2026-05-05 07:57 17.83111 100.25750 35243 ft 465 kts 180°
2026-05-05 07:57 17.79877 100.25851 35488 ft 465 kts 180°
2026-05-05 07:57 17.76645 100.25950 35716 ft 464 kts 180°
2026-05-05 07:57 17.73416 100.26050 35949 ft 464 kts 180°
2026-05-05 07:58 17.70191 100.26150 36198 ft 463 kts 180°
2026-05-05 07:58 17.66971 100.26249 36434 ft 463 kts 180°
2026-05-05 07:58 17.63754 100.26351 36663 ft 462 kts 180°
2026-05-05 07:58 17.60541 100.26457 36859 ft 462 kts 180°
2026-05-05 07:59 17.54181 100.26671 36918 ft 459 kts 180°
2026-05-05 07:59 17.47796 100.26876 36916 ft 459 kts 180°
2026-05-05 08:00 17.41409 100.27076 36909 ft 459 kts 180°
2026-05-05 08:00 17.35016 100.27281 36909 ft 459 kts 180°
2026-05-05 08:01 17.28671 100.27488 36907 ft 460 kts 180°
2026-05-05 08:01 17.22277 100.27694 36910 ft 460 kts 180°
2026-05-05 08:02 17.15878 100.27898 36913 ft 460 kts 180°
2026-05-05 08:02 17.09476 100.28104 36913 ft 460 kts 180°
2026-05-05 08:03 17.03117 100.28303 36912 ft 460 kts 180°
2026-05-05 08:03 16.96718 100.28506 36913 ft 460 kts 180°
2026-05-05 08:04 16.90322 100.28718 36902 ft 460 kts 180°
2026-05-05 08:04 16.83933 100.28923 36881 ft 460 kts 180°
2026-05-05 08:05 16.77580 100.29119 36878 ft 460 kts 180°
2026-05-05 08:05 16.71190 100.29236 36878 ft 459 kts 181°
2026-05-05 08:06 16.64811 100.29229 36876 ft 458 kts 182°
2026-05-05 08:06 16.58435 100.29206 36875 ft 458 kts 181°
2026-05-05 08:07 16.52054 100.29226 36875 ft 459 kts 181°
2026-05-05 08:07 16.45720 100.29263 36876 ft 459 kts 181°
2026-05-05 08:08 16.39339 100.29293 36875 ft 458 kts 181°
2026-05-05 08:08 16.32964 100.29325 36879 ft 458 kts 181°
2026-05-05 08:09 16.26594 100.29351 36880 ft 458 kts 181°
2026-05-05 08:09 16.20270 100.29373 36878 ft 457 kts 181°
2026-05-05 08:10 16.13908 100.29394 36877 ft 457 kts 181°
2026-05-05 08:10 16.07549 100.29416 36871 ft 457 kts 181°
2026-05-05 08:11 16.01183 100.29445 36555 ft 458 kts 181°
2026-05-05 08:11 15.98005 100.29461 36315 ft 458 kts 181°
2026-05-05 08:11 15.94817 100.29477 36073 ft 458 kts 181°
2026-05-05 08:12 15.91666 100.29494 35836 ft 459 kts 181°
2026-05-05 08:12 15.88467 100.29508 35452 ft 461 kts 181°
2026-05-05 08:12 15.85238 100.29520 34575 ft 467 kts 181°
2026-05-05 08:12 15.81961 100.29531 33662 ft 473 kts 181°
2026-05-05 08:13 15.78648 100.29540 32633 ft 479 kts 181°
2026-05-05 08:13 15.75313 100.29551 31912 ft 479 kts 181°
2026-05-05 08:13 15.71992 100.29568 31306 ft 475 kts 181°
2026-05-05 08:13 15.68706 100.29585 30674 ft 472 kts 181°
2026-05-05 08:14 15.65434 100.29602 30035 ft 469 kts 181°
2026-05-05 08:14 15.62225 100.29613 29362 ft 465 kts 181°
2026-05-05 08:14 15.59005 100.29624 28751 ft 460 kts 181°
2026-05-05 08:14 15.55818 100.29633 28134 ft 456 kts 181°
2026-05-05 08:15 15.52662 100.29643 27551 ft 452 kts 181°
2026-05-05 08:15 15.49534 100.29652 26956 ft 448 kts 181°
2026-05-05 08:15 15.46433 100.29665 26379 ft 444 kts 181°
2026-05-05 08:15 15.43355 100.29681 25811 ft 440 kts 181°
2026-05-05 08:16 15.40313 100.29696 25269 ft 436 kts 181°
2026-05-05 08:16 15.37293 100.29713 24726 ft 432 kts 181°
2026-05-05 08:16 15.34337 100.29728 24202 ft 428 kts 181°
2026-05-05 08:16 15.31373 100.29743 23697 ft 424 kts 181°
2026-05-05 08:17 15.28436 100.29876 23137 ft 422 kts 173°
2026-05-05 08:17 15.25592 100.30545 22624 ft 417 kts 162°
2026-05-05 08:17 15.22887 100.31580 22139 ft 412 kts 160°
2026-05-05 08:17 15.20213 100.32614 21646 ft 408 kts 160°
2026-05-05 08:18 15.17564 100.33633 21151 ft 404 kts 160°
2026-05-05 08:18 15.14936 100.34640 20658 ft 401 kts 160°
2026-05-05 08:18 15.12327 100.35640 20156 ft 399 kts 160°
2026-05-05 08:18 15.09773 100.36620 19660 ft 397 kts 160°
2026-05-05 08:19 15.07190 100.37613 19150 ft 395 kts 160°
2026-05-05 08:19 15.04612 100.38606 18640 ft 394 kts 160°
2026-05-05 08:19 15.02051 100.39593 18127 ft 393 kts 160°
2026-05-05 08:19 14.99491 100.40580 17565 ft 392 kts 160°
2026-05-05 08:20 14.96942 100.41562 17069 ft 388 kts 160°
2026-05-05 08:20 14.94423 100.42531 16578 ft 386 kts 160°
2026-05-05 08:20 14.91911 100.43493 16084 ft 384 kts 160°
2026-05-05 08:20 14.89415 100.44451 15599 ft 382 kts 160°
2026-05-05 08:21 14.86968 100.45391 15115 ft 378 kts 160°
2026-05-05 08:21 14.84548 100.46322 14650 ft 364 kts 160°
2026-05-05 08:21 14.82215 100.47220 14189 ft 352 kts 160°
2026-05-05 08:21 14.79922 100.48100 13738 ft 352 kts 160°
2026-05-05 08:22 14.77631 100.48981 13312 ft 349 kts 160°
2026-05-05 08:22 14.75376 100.49848 13071 ft 341 kts 160°
2026-05-05 08:22 14.73188 100.50690 12944 ft 330 kts 160°
2026-05-05 08:22 14.71104 100.51491 12714 ft 318 kts 160°
2026-05-05 08:23 14.69033 100.52225 12365 ft 313 kts 163°
2026-05-05 08:23 14.66949 100.52852 12095 ft 309 kts 164°
2026-05-05 08:23 14.64877 100.53427 11721 ft 309 kts 165°
2026-05-05 08:23 14.62794 100.53988 11348 ft 308 kts 165°
2026-05-05 08:24 14.60744 100.54547 10913 ft 304 kts 165°
2026-05-05 08:24 14.58698 100.55117 10497 ft 305 kts 165°
2026-05-05 08:24 14.56677 100.55686 10163 ft 299 kts 164°
2026-05-05 08:24 14.54681 100.56252 9859 ft 295 kts 164°
2026-05-05 08:25 14.52740 100.56803 9261 ft 291 kts 164°
2026-05-05 08:25 14.50797 100.57356 8665 ft 290 kts 164°
2026-05-05 08:25 14.48857 100.57911 8283 ft 288 kts 164°
2026-05-05 08:25 14.46933 100.58461 7932 ft 286 kts 164°
2026-05-05 08:26 14.45025 100.59005 7643 ft 281 kts 164°
2026-05-05 08:26 14.43178 100.59534 7518 ft 270 kts 164°
2026-05-05 08:26 14.41403 100.60041 7384 ft 260 kts 164°
2026-05-05 08:26 14.39694 100.60529 7218 ft 251 kts 164°
2026-05-05 08:27 14.38041 100.61001 6987 ft 249 kts 164°
2026-05-05 08:27 14.36373 100.61476 6754 ft 248 kts 164°
2026-05-05 08:27 14.34709 100.61949 6551 ft 248 kts 164°
2026-05-05 08:27 14.33048 100.62421 6372 ft 247 kts 163°
2026-05-05 08:28 14.31403 100.62889 6173 ft 244 kts 163°
2026-05-05 08:28 14.29768 100.63355 5985 ft 243 kts 163°
2026-05-05 08:28 14.28139 100.63822 5789 ft 243 kts 163°
2026-05-05 08:28 14.26517 100.64288 5595 ft 242 kts 163°
2026-05-05 08:29 14.24898 100.64751 5400 ft 241 kts 163°
2026-05-05 08:29 14.23301 100.65205 5185 ft 241 kts 163°
2026-05-05 08:29 14.21683 100.65665 4970 ft 241 kts 163°
2026-05-05 08:30 14.18455 100.66582 4618 ft 241 kts 164°
2026-05-05 08:30 14.16841 100.67041 4396 ft 240 kts 164°
2026-05-05 08:30 14.15234 100.67500 4166 ft 239 kts 164°
2026-05-05 08:30 14.13647 100.67952 3930 ft 235 kts 164°
2026-05-05 08:31 14.12096 100.68392 3687 ft 226 kts 164°
2026-05-05 08:31 14.10637 100.68804 3484 ft 215 kts 164°
2026-05-05 08:31 14.09244 100.69201 3338 ft 199 kts 164°
2026-05-05 08:31 14.07907 100.69403 3171 ft 194 kts 182°
2026-05-05 08:32 14.06601 100.69074 2962 ft 194 kts 205°
2026-05-05 08:32 14.05416 100.68418 2729 ft 194 kts 208°
2026-05-05 08:32 14.04233 100.67752 2482 ft 193 kts 208°
2026-05-05 08:32 14.03063 100.67094 2244 ft 190 kts 207°
2026-05-05 08:33 14.01948 100.66468 2018 ft 181 kts 208°
2026-05-05 08:33 14.00874 100.65864 1793 ft 173 kts 208°
2026-05-05 08:33 13.99826 100.65276 1575 ft 171 kts 208°
2026-05-05 08:33 13.98806 100.64704 1353 ft 160 kts 207°
2026-05-05 08:34 13.97863 100.64174 1158 ft 150 kts 207°
2026-05-05 08:34 13.96970 100.63673 978 ft 144 kts 207°
2026-05-05 08:34 13.96096 100.63180 793 ft 144 kts 207°
2026-05-05 08:34 13.95214 100.62688 618 ft 146 kts 207°
2026-05-05 08:35 13.94314 100.62185 434 ft 149 kts 208°
2026-05-05 08:35 13.93412 100.61672 234 ft 151 kts 207°
2026-05-05 08:35 13.92562 100.61198 53 ft 151 kts 208°
2026-05-05 08:35 13.91716 100.60724 16 ft 125 kts 208°
2026-05-05 08:36 13.91199 100.60434 17 ft 36 kts 214°
2026-05-05 08:36 13.91095 100.60284 17 ft 21 kts 239°
2026-05-05 08:36 13.91030 100.60177 19 ft 13 kts 240°
2026-05-05 08:36 13.91045 100.60099 18 ft 11 kts 322°
2026-05-05 08:37 13.91114 100.60116 17 ft 11 kts 32°
2026-05-05 08:37 13.91161 100.60143 17 ft 7 kts 27°
2026-05-05 08:37 13.91201 100.60147 17 ft 5 kts 329°
2026-05-05 08:37 13.91228 100.60106 17 ft 9 kts 301°
2026-05-05 08:38 13.91266 100.60114 17 ft 5 kts 29°
2026-05-05 08:38 13.91295 100.60131 20 ft 4 kts 28°
2026-05-05 08:38 13.91311 100.60140 17 ft 0 kts 29°